Hourly Weather Kizray

Today, 21 April, Wednesday

Time Temperature Precipitation Wind Pressure Humidity
00:00 +1°C° 0 mm 2 mps 748 mmHg 51%
01:00 +2°C° 0 mm 1 mps 748 mmHg 52%
02:00 +1°C° 0 mm 1 mps 748 mmHg 53%
03:00 -1°C° 0 mm 2 mps 748 mmHg 53%
04:00 +1°C° 0 mm 1 mps 749 mmHg 53%
05:00 +1°C° 0 mm 2 mps 749 mmHg 50%
06:00 +2°C° 0 mm 2 mps 749 mmHg 47%
07:00 +3°C° 0 mm 2 mps 749 mmHg 44%
08:00 +3°C° 0 mm 3 mps 749 mmHg 40%
09:00 +5°C° 0 mm 3 mps 749 mmHg 36%
10:00 +7°C° 0 mm 4 mps 749 mmHg 32%
11:00 +8°C° 0 mm 4 mps 749 mmHg 31%
12:00 +9°C° 0 mm 5 mps 748 mmHg 30%
13:00 +10°C° 0 mm 5 mps 748 mmHg 29%
14:00 +10°C° 0 mm 5 mps 748 mmHg 29%
15:00 +10°C° 0 mm 5 mps 748 mmHg 29%
16:00 +12°C° 0 mm 5 mps 747 mmHg 30%
17:00 +10°C° 0 mm 5 mps 748 mmHg 34%
18:00 +10°C° 0 mm 4 mps 748 mmHg 39%
19:00 +8°C° 0 mm 3 mps 748 mmHg 43%
20:00 +7°C° 0 mm 4 mps 748 mmHg 45%
21:00 +6°C° 0 mm 4 mps 748 mmHg 46%
22:00 +6°C° 0 mm 4 mps 747 mmHg 47%
23:00 +5°C° 0 mm 4 mps 747 mmHg 48%

Tomorrow, 22 April, Thursday

Time Temperature Precipitation Wind Pressure Humidity
00:00 +5°C° 0 mm 4 mps 747 mmHg 49%
01:00 +5°C° 0 mm 4 mps 748 mmHg 50%
02:00 +4°C° 0 mm 4 mps 748 mmHg 54%
03:00 +4°C° 0 mm 4 mps 748 mmHg 58%
04:00 +4°C° 0 mm 4 mps 748 mmHg 61%
05:00 +4°C° 0 mm 4 mps 748 mmHg 61%
06:00 +4°C° 0 mm 4 mps 748 mmHg 61%
07:00 +4°C° 0 mm 4 mps 748 mmHg 61%
08:00 +3°C° 0.2 mm 5 mps 749 mmHg 63%
09:00 +3°C° 0.2 mm 5 mps 749 mmHg 64%
10:00 +3°C° 0.2 mm 5 mps 749 mmHg 66%
11:00 +6°C° 0 mm 5 mps 749 mmHg 57%
12:00 +7°C° 0 mm 6 mps 749 mmHg 48%
13:00 +9°C° 0 mm 6 mps 749 mmHg 39%
14:00 +9°C° 0 mm 6 mps 748 mmHg 41%
15:00 +9°C° 0 mm 6 mps 748 mmHg 42%
16:00 +9°C° 0 mm 6 mps 748 mmHg 43%
17:00 +8°C° 0 mm 5 mps 748 mmHg 47%
18:00 +8°C° 0 mm 4 mps 748 mmHg 50%
19:00 +7°C° 0 mm 4 mps 748 mmHg 54%
20:00 +7°C° 0 mm 4 mps 748 mmHg 56%
21:00 +6°C° 0 mm 5 mps 748 mmHg 59%
22:00 +6°C° 0 mm 5 mps 748 mmHg 61%
23:00 +5°C° 0.2 mm 5 mps 747 mmHg 71%

Day after tomorrow, 23 April, Friday

Time Temperature Precipitation Wind Pressure Humidity
00:00 +5°C° 0.2 mm 5 mps 747 mmHg 80%
01:00 +3°C° 0.2 mm 5 mps 747 mmHg 89%
02:00 +4°C° 0.4 mm 4 mps 747 mmHg 90%
03:00 +4°C° 0.4 mm 3 mps 747 mmHg 91%
04:00 +5°C° 0.4 mm 2 mps 747 mmHg 92%
05:00 +5°C° 0 mm 3 mps 747 mmHg 87%
06:00 +5°C° 0 mm 3 mps 746 mmHg 82%
07:00 +7°C° 0 mm 3 mps 746 mmHg 76%
08:00 +8°C° 0 mm 4 mps 746 mmHg 67%
09:00 +10°C° 0 mm 4 mps 746 mmHg 58%
10:00 +12°C° 0 mm 5 mps 746 mmHg 49%
11:00 +12°C° 0 mm 5 mps 745 mmHg 46%
12:00 +13°C° 0 mm 5 mps 745 mmHg 44%
13:00 +13°C° 0 mm 5 mps 745 mmHg 42%
14:00 +13°C° 0 mm 5 mps 745 mmHg 44%
15:00 +13°C° 0 mm 5 mps 745 mmHg 46%
16:00 +13°C° 0 mm 6 mps 744 mmHg 48%
17:00 +10°C° 0.2 mm 5 mps 744 mmHg 59%
18:00 +9°C° 0.2 mm 5 mps 745 mmHg 69%
19:00 +7°C° 0.2 mm 4 mps 745 mmHg 80%
20:00 +7°C° 0.5 mm 4 mps 744 mmHg 81%
21:00 +7°C° 0.5 mm 4 mps 744 mmHg 81%
22:00 +7°C° 0.5 mm 5 mps 744 mmHg 81%
23:00 +7°C° 0.1 mm 4 mps 743 mmHg 82%

24 April, Saturday

Time Temperature Precipitation Wind Pressure Humidity
00:00 +6°C° 0.1 mm 4 mps 742 mmHg 83%
01:00 +7°C° 0.1 mm 3 mps 742 mmHg 83%
02:00 +6°C° 0 mm 4 mps 741 mmHg 80%
03:00 +6°C° 0 mm 5 mps 740 mmHg 78%
04:00 +6°C° 0 mm 5 mps 740 mmHg 75%
05:00 +6°C° 0.4 mm 5 mps 739 mmHg 74%
06:00 +5°C° 0.4 mm 6 mps 739 mmHg 73%
07:00 +5°C° 0.4 mm 6 mps 738 mmHg 72%
08:00 +5°C° 0.2 mm 6 mps 738 mmHg 72%
09:00 +7°C° 0.2 mm 6 mps 737 mmHg 73%
10:00 +7°C° 0.2 mm 6 mps 737 mmHg 73%
11:00 +7°C° 0.2 mm 6 mps 737 mmHg 76%
12:00 +5°C° 0.2 mm 6 mps 736 mmHg 78%
13:00 +5°C° 0.2 mm 6 mps 736 mmHg 80%
14:00 +5°C° 0.1 mm 6 mps 736 mmHg 79%
15:00 +6°C° 0.1 mm 5 mps 735 mmHg 78%
16:00 +7°C° 0.1 mm 4 mps 735 mmHg 77%
17:00 +7°C° 0 mm 4 mps 735 mmHg 77%
18:00 +8°C° 0 mm 3 mps 735 mmHg 77%
19:00 +8°C° 0 mm 3 mps 734 mmHg 77%
20:00 +7°C° 0 mm 2 mps 734 mmHg 79%
21:00 +7°C° 0 mm 2 mps 734 mmHg 81%
22:00 +7°C° 0 mm 2 mps 734 mmHg 83%
23:00 +6°C° 0 mm 2 mps 735 mmHg 86%

25 April, Sunday

Time Temperature Precipitation Wind Pressure Humidity
00:00 +5°C° 0 mm 3 mps 735 mmHg 89%
01:00 +5°C° 0 mm 3 mps 735 mmHg 91%
02:00 +5°C° 0 mm 3 mps 736 mmHg 92%
03:00 +5°C° 0 mm 3 mps 736 mmHg 92%
04:00 +5°C° 0 mm 2 mps 737 mmHg 92%
05:00 +6°C° 0 mm 2 mps 737 mmHg 90%
06:00 +5°C° 0 mm 3 mps 737 mmHg 88%
07:00 +5°C° 0 mm 3 mps 737 mmHg 85%
08:00 +6°C° 0 mm 4 mps 737 mmHg 83%
09:00 +7°C° 0 mm 5 mps 737 mmHg 80%
10:00 +8°C° 0 mm 6 mps 737 mmHg 78%
11:00 +9°C° 0.2 mm 6 mps 737 mmHg 76%
12:00 +10°C° 0.2 mm 6 mps 737 mmHg 73%
13:00 +11°C° 0.2 mm 6 mps 737 mmHg 71%
14:00 +11°C° 0.2 mm 6 mps 737 mmHg 63%
15:00 +13°C° 0.2 mm 6 mps 737 mmHg 54%
16:00 +14°C° 0.2 mm 6 mps 738 mmHg 45%
17:00 +12°C° 0 mm 5 mps 738 mmHg 49%
18:00 +11°C° 0 mm 3 mps 738 mmHg 54%
19:00 +10°C° 0 mm 2 mps 738 mmHg 58%
20:00 +9°C° 0 mm 2 mps 739 mmHg 60%
21:00 +8°C° 0 mm 2 mps 739 mmHg 63%
22:00 +8°C° 0 mm 2 mps 739 mmHg 66%
23:00 +8°C° 0 mm 2 mps 739 mmHg 67%

26 April, Monday

Time Temperature Precipitation Wind Pressure Humidity
00:00 +7°C° 0 mm 2 mps 739 mmHg 69%
01:00 +7°C° 0 mm 2 mps 739 mmHg 70%
02:00 +7°C° 0.2 mm 2 mps 739 mmHg 75%
03:00 +7°C° 0.2 mm 2 mps 739 mmHg 80%
04:00 +7°C° 0.2 mm 2 mps 739 mmHg 86%
05:00 +6°C° 0.8 mm 2 mps 739 mmHg 89%
06:00 +6°C° 0.8 mm 2 mps 739 mmHg 92%
07:00 +6°C° 0.8 mm 2 mps 739 mmHg 95%
08:00 +7°C° 0.7 mm 2 mps 738 mmHg 93%
09:00 +7°C° 0.7 mm 2 mps 737 mmHg 91%
10:00 +8°C° 0.7 mm 3 mps 737 mmHg 89%
11:00 +9°C° 1.4 mm 3 mps 736 mmHg 87%
12:00 +10°C° 1.4 mm 4 mps 736 mmHg 85%
13:00 +11°C° 1.4 mm 4 mps 735 mmHg 83%
14:00 +10°C° 2.2 mm 4 mps 735 mmHg 86%
15:00 +10°C° 2.2 mm 3 mps 735 mmHg 88%
16:00 +9°C° 2.2 mm 3 mps 735 mmHg 91%
17:00 +9°C° 0.5 mm 2 mps 735 mmHg 92%
18:00 +9°C° 0.5 mm 2 mps 734 mmHg 92%
19:00 +9°C° 0.5 mm 1 mps 734 mmHg 93%
20:00 +9°C° 0 mm 1 mps 734 mmHg 93%
21:00 +9°C° 0 mm 1 mps 734 mmHg 94%
22:00 +8°C° 0 mm 0 mps 733 mmHg 95%
23:00 +8°C° 0 mm 1 mps 733 mmHg 95%
Show more

We Need Your Consent

Meteoprog and our Service Providers may store and access personal data such as cookies, device identifiers or other similar technologies on your device and process such data to personalise content and ads, as well as provide social media features and to analyse the traffic.

  • Store and/or access information on your device

    Cookies, device identifiers or other information can be stored or accessed on your device for the purposes indicated above.

  • Personalised ads and content, ad and content measurement, audience insights, and products development

    Ads and content can be personalised based on a profile. More data can be added to better personalise ads and content. Ad and content performance can be measured. Insights about the audience who saw the ads and content can be derived. Such data can be used to develop or improve user’s experience, systems and software.

By clicking ‘I Agree’ you will allow the use of indicated cookies, device identifiers, web beacons or other similar technologies. Your settings can be changed in the browser on your device.

For certain purposes, legitimate interests may be relied on, rather than consent. You can read more about this in our Privacy and Cookie Policy.